Content
SEND FEEDBACK

Daily
Averages
Monthly
Summary
United States of America

POTTS JUNCTION, GUAM


Home > North America > United States > Guam
Elevation: 360 feet     Latitude: 13 33N     Longitude: 144 50E

WEATHER
 
SELECT A DAY
Number of Records: 208,919;   Date Range: 1/1/95 - 7/23/14
 
SHARE

PRINT THIS DATA

[ ← Previous Day ]
WEATHER ALMANAC - MARCH 23, 2013
[ Next Day → ]
[ °C ]   °F
Weather ElementAverageHighLow
Temperature84.1 °F89.6 °F (11:37 am)78.1 °F (11:54 pm)
Dewpoint72.6 °F75.2 °F (11:41 pm)69.1 °F (1:54 pm)
Humidity69.4 %87 % (11:54 pm)52 % (1:54 pm)
Barometer29.88 in29.94 in (11:41 pm)29.81 in (2:54 pm)
Wind Speed10.5 mph15 mph (8:54 am)
Wind Gust19.6 mph (11:16 am)
Weather ElementAverage
Visibility9.5 mi
Wind DirectionENE (66 °)

Weather ElementTotal
Precipitation0.12 in
Cooling Degree Days18.9 (Base 65)
Growing Degree Days33.9 (Base 50)
Averaged from 30 records on March 23, 2013
WEATHER CONDITIONS BREAKOUT
WIND DIRECTION BREAKOUT
WEATHER BY HOUR - MARCH 23, 2013
[ °C ]   °F
Local TimeTemperatureDewpointHumidityBarometerVisibilityWind DirectionWind SpeedGust SpeedPrecipitationEventsConditions
1:54 AM79.0 °F73.9 °F84 %29.88 in10.0 miNE (50°)6.9 mphPartly Cloudy
2:54 AM79.0 °F73.0 °F82 %29.87 in10.0 miNE (50°)6.9 mphClear
3:54 AM79.0 °F73.0 °F82 %29.86 in10.0 miENE (60°)6.9 mphClear
4:54 AM79.0 °F73.9 °F84 %29.86 in10.0 miENE (60°)8.1 mph0.00 inClear
5:54 AM80.1 °F73.0 °F79 %29.87 in10.0 miENE (60°)10.4 mphClear
6:54 AM80.1 °F73.0 °F79 %29.89 in10.0 miENE (70°)9.2 mphClear
7:54 AM82.9 °F73.0 °F72 %29.91 in10.0 miENE (60°)10.4 mphClear
8:54 AM84.0 °F73.0 °F69 %29.92 in10.0 miENE (70°)15.0 mphClear
9:54 AM84.9 °F72.0 °F65 %29.92 in10.0 miNE (50°)13.8 mphScattered Clouds
10:54 AM86.0 °F71.1 °F61 %29.90 in10.0 miENE (70°)12.7 mphMostly Cloudy
11:16 AM87.8 °F71.6 °F58 %29.91 in10.0 miENE (60°)11.5 mph19.6 mphMostly Cloudy
11:37 AM89.6 °F71.6 °F55 %29.91 in10.0 miENE (60°)12.7 mphScattered Clouds
11:44 AM89.6 °F71.6 °F55 %29.90 in10.0 miNE (50°)11.5 mphMostly Cloudy
11:54 AM87.1 °F72.0 °F61 %29.88 in10.0 miENE (60°)13.8 mphMostly Cloudy
12:03 PM87.8 °F71.6 °F58 %29.89 in10.0 miENE (60°)13.8 mphMostly Cloudy
12:13 PM89.6 °F71.6 °F55 %29.89 in10.0 miEast (80°)13.8 mphMostly Cloudy
12:54 PM89.1 °F71.1 °F55 %29.85 in10.0 miEast (80°)12.7 mphScattered Clouds
1:54 PM89.1 °F69.1 °F52 %29.83 in10.0 miEast (80°)12.7 mphClear
2:54 PM89.1 °F70.0 °F53 %29.81 in10.0 miENE (70°)11.5 mph18.4 mphClear
3:54 PM88.0 °F71.1 °F57 %29.81 in10.0 miEast (100°)11.5 mphPartly Cloudy
4:54 PM87.1 °F72.0 °F61 %29.82 in10.0 miENE (60°)15.0 mphPartly Cloudy
5:54 PM84.9 °F73.0 °F67 %29.83 in10.0 miNE (50°)10.4 mphPartly Cloudy
6:54 PM82.9 °F73.0 °F72 %29.85 in10.0 miENE (60°)9.2 mphScattered Clouds
7:54 PM82.0 °F73.0 °F74 %29.88 in10.0 miEast (80°)8.1 mphPartly Cloudy
8:54 PM82.0 °F73.9 °F76 %29.90 in10.0 miENE (60°)6.9 mphPartly Cloudy
9:54 PM82.0 °F75.0 °F79 %29.91 in10.0 miENE (60°)4.6 mphScattered Clouds
10:54 PM81.0 °F75.0 °F82 %29.92 in10.0 miNE (50°)5.8 mphScattered Clouds
11:41 PM80.6 °F75.2 °F84 %29.94 in7.0 miEast (90°)9.2 mph0.00 inRainLight Rain
11:47 PM80.6 °F75.2 °F84 %29.94 in2.5 miEast (90°)11.5 mph18.4 mph0.04 inRainHeavy Rain
11:54 PM78.1 °F73.9 °F87 %29.91 in5.0 miEast (80°)8.1 mph18.4 mph0.08 inRainLight Rain
Hourly data recorded from PGUM, located miles away from Potts Junction, Guam







STORIES FROM OUR PARTNERS